Change the Weather History Date:

Thursday, February 13, 2014

  Actual Average Record
Temperature  
Mean Temperature 67 °F -  
Max Temperature 75 °F 76 °F 87 °F (1975)
Min Temperature 57 °F 56 °F 41 °F (1973)
Cooling Degree Days 2    
Growing Degree Days 17 (Base 50)    
Moisture  
Dew Point 60 °F    
Average Humidity 78    
Maximum Humidity 100    
Minimum Humidity 50    
Precipitation  
Precipitation 0.05 in - - ()
Sea Level Pressure  
Sea Level Pressure 29.86 in    
Wind  
Wind Speed 13 mph (WNW)    
Max Wind Speed 22 mph    
Max Gust Speed 32 mph    
Visibility 10 miles    
Events Rain    
Averages and records for this station are not official NWS values.
T = Trace of Precipitation, MM = Missing Value Source: NWS Daily Summary

Daily Weather History Graph

Daily Weather History Graph

Search for Another Location

Airport or City:

Trip Planner

Search our weather history database for the weather conditions in past years. The results will help you decide how hot, cold, wet, or windy it might be!

Date:

Astronomy

Feb. 13, 2014 Rise Set
Actual Time 6:57 AM EST 6:13 PM EST
Civil Twilight 6:34 AM EST 6:36 PM EST
Nautical Twilight 6:07 AM EST 7:03 PM EST
Astronomical Twilight 5:40 AM EST 7:30 PM EST
Moon 5:19 PM EST (2/13) 5:48 AM EST (2/13)
Length of Visible Light 12h 02m
Length of Day
11h 15m
Waxing Gibbous, 98% of the Moon is Illuminated
Feb 13
Waxing Gibbous
Feb 14
Full
Feb 22
Last Quarter
Mar 1
New
Mar 8
First Quarter

Hourly Weather History & Observations

Time (EST) Temp. Dew Point Humidity Pressure Visibility Wind Dir Wind Speed Gust Speed Precip Events Conditions
12:53 AM 66.0 °F 66.0 °F 100% 29.83 in 10.0 mi West 5.8 mph - 0.02 in   Partly Cloudy
1:53 AM 66.0 °F 66.0 °F 100% 29.81 in 10.0 mi SW 6.9 mph - N/A   Clear
2:53 AM 66.9 °F 66.0 °F 97% 29.80 in 10.0 mi SSW 10.4 mph - N/A   Clear
3:53 AM 68.0 °F 66.9 °F 96% 29.79 in 10.0 mi SW 9.2 mph - N/A   Partly Cloudy
4:53 AM 69.1 °F 68.0 °F 96% 29.78 in 10.0 mi WSW 9.2 mph - N/A   Clear
5:53 AM 70.0 °F 69.1 °F 97% 29.80 in 10.0 mi SW 9.2 mph - N/A   Clear
6:53 AM 69.1 °F 68.0 °F 96% 29.81 in 10.0 mi SSW 10.4 mph - N/A   Clear
7:53 AM 72.0 °F 69.1 °F 91% 29.81 in 10.0 mi SSW 12.7 mph - N/A   Mostly Cloudy
8:23 AM 70.0 °F 70.0 °F 100% 29.83 in 10.0 mi West 16.1 mph - 0.03 in Rain Light Rain
8:43 AM 69.1 °F 69.1 °F 100% 29.84 in 10.0 mi WNW 21.9 mph 27.6 mph 0.03 in Rain Light Rain
8:53 AM 68.0 °F 68.0 °F 100% 29.85 in 5.0 mi WNW 19.6 mph 31.1 mph 0.03 in   Overcast
9:33 AM 66.0 °F 64.0 °F 93% 29.87 in 10.0 mi NW 21.9 mph 28.8 mph N/A   Overcast
9:53 AM 64.9 °F 63.0 °F 93% 29.89 in 10.0 mi NW 17.3 mph - N/A   Overcast
10:09 AM 66.0 °F 62.1 °F 87% 29.89 in 10.0 mi WNW 13.8 mph 23.0 mph N/A   Overcast
10:29 AM 69.1 °F 62.1 °F 78% 29.88 in 10.0 mi WNW 19.6 mph 27.6 mph N/A   Mostly Cloudy
10:53 AM 69.1 °F 59.0 °F 70% 29.88 in 10.0 mi WNW 20.7 mph - N/A   Mostly Cloudy
11:53 AM 71.1 °F 57.9 °F 63% 29.87 in 10.0 mi WNW 18.4 mph 28.8 mph N/A   Overcast
12:53 PM 75.0 °F 57.0 °F 53% 29.84 in 10.0 mi WNW 20.7 mph 26.5 mph N/A   Partly Cloudy
1:53 PM 75.0 °F 55.9 °F 51% 29.81 in 10.0 mi WNW 20.7 mph 28.8 mph N/A   Clear
2:53 PM 75.9 °F 55.9 °F 50% 29.81 in 10.0 mi WNW 20.7 mph 32.2 mph N/A   Mostly Cloudy
3:53 PM 72.0 °F 54.0 °F 53% 29.82 in 10.0 mi WNW 21.9 mph 27.6 mph N/A   Partly Cloudy
4:53 PM 71.1 °F 54.0 °F 55% 29.85 in 10.0 mi WNW 13.8 mph - N/A   Partly Cloudy
5:53 PM 68.0 °F 53.1 °F 59% 29.88 in 10.0 mi WNW 18.4 mph - N/A   Clear
6:53 PM 64.9 °F 51.1 °F 61% 29.90 in 10.0 mi NW 12.7 mph 21.9 mph N/A   Clear
7:53 PM 63.0 °F 50.0 °F 63% 29.94 in 10.0 mi NW 12.7 mph - N/A   Clear
8:53 PM 61.0 °F 48.9 °F 64% 29.96 in 10.0 mi NW 10.4 mph - N/A   Clear
9:53 PM 60.1 °F 48.0 °F 64% 29.98 in 10.0 mi NW 13.8 mph - N/A   Clear
10:53 PM 59.0 °F 48.9 °F 69% 29.99 in 10.0 mi NW 9.2 mph - N/A   Clear
11:53 PM 57.0 °F 48.9 °F 74% 29.99 in 10.0 mi NW 12.7 mph - N/A   Clear